Lexington Weather

Lexington, Massachusetts, USA

46°F
9/19/2020 8:42am 
  • Lexington Conditions: Clear
  • Temperature: 45.7°F / 7.6°CWarmer 2.5°F than last hour.
  • Dew Point: 35.8°FIncreased 0.4°Fsince last hour.
  • Relative Humidity: 68%Decreased 6.0% since last hour.
  • Wind: Wind from ENE ENE 1 mph, 10-min avg: 1 mph, gust: 3 mph
  • Barometer: 30.26 inRising 0.03  inHg/hr Rising Slowly
  • Visibility: 10 miles
  • Rain Today: 0.00 in
  •   
Southeast Middlesex County - Special Weather Statement
 - SEE ALL NEARBY ALERTS -

Regional Weather Roundup
for Boston / Norton, MA

        
000
ASUS41 KBOX 171004
RWRBOX

REGIONAL WEATHER ROUNDUP
NATIONAL WEATHER SERVICE BOSTON/NORTON MA
600 AM EDT THU SEP 17 2020

NOTE:  "FAIR" INDICATES FEW OR NO CLOUDS BELOW 12,000 FEET WITH NO 
SIGNIFICANT WEATHER AND/OR OBSTRUCTIONS TO VISIBILITY.

MAZALL-171100-
EASTERN MASSACHUSETTS
  
CITY           SKY/WX    TMP DP  RH WIND       PRES   REMARKS
BOSTON         NOT AVBL                                               
BEVERLY        CLEAR     60  55  83 SW6       30.02F                  
LAWRENCE       CLEAR     57  55  93 SW7       30.04S                  
BEDFORD        CLEAR     58  55  90 SW3       30.02S                  
BLUE HILL        N/A     58  56  93 SW14      30.03F                  
NORWOOD        FOG       52  49  89 CALM      30.04S VSB 1/4          
MARSHFIELD     MOCLDY    59  59 100 CALM      30.04F                  
PLYMOUTH       CLEAR     61  59  93 SW7       30.05S                  
TAUNTON        CLEAR     63  59  87 SW3       30.05S                  
NEW BEDFORD    CLEAR     61  59  93 SW5       30.05S                  
$$

MAZALL-171100-
CAPE COD AND THE ISLANDS
  
CITY           SKY/WX    TMP DP  RH WIND       PRES   REMARKS
FALMOUTH       PTCLDY    64  59  82 W15       30.06S                  
HYANNIS        PTCLDY    64  60  87 SW6       30.05S                  
CHATHAM        PTCLDY    67  61  81 W6        30.07S                  
PROVINCETOWN   PTCLDY    62  61  96 SW7       30.06S                  
NANTUCKET      CLEAR     66  62  87 SW8       30.07S                  
MARTHAS VNYRD  CLEAR     64  62  93 W6        30.07S                  
$$
 
MAZALL-171100-
CENTRAL AND WESTERN MASSACHUSETTS
  
CITY           SKY/WX    TMP DP  RH WIND       PRES   REMARKS
WORCESTER      CLEAR     57  53  86 W9        30.04S                  
FITCHBURG      CLEAR     60  53  77 CALM      30.03S                  
ORANGE         CLEAR     49  48  97 SW3       30.04F                  
SPRINGFIELD    CLEAR     55  55  98 CALM      30.03S                  
WESTFIELD      CLEAR     53  52  96 CALM      30.03F                  
NORTH ADAMS    CLEAR     48  46  93 CALM      30.04S                  
PITTSFIELD     CLEAR     51  49  92 CALM      30.03F                  
$$
 
RIZALL-171100-
RHODE ISLAND
  
CITY           SKY/WX    TMP DP  RH WIND       PRES   REMARKS
PROVIDENCE     MOCLDY    59  58  96 CALM      30.06S                  
NEWPORT        PTCLDY    63  58  83 CALM      30.06S                  
BLOCK ISLAND   CLOUDY    64  59  83 SW6       30.07S                  
SMITHFIELD     CLEAR     58  58 100 SW5       30.06S                  
WESTERLY       MOCLDY    59  55  87 CALM      30.06F                  
$$
 
CTZALL-171100-
CONNECTICUT
  
CITY           SKY/WX    TMP DP  RH WIND       PRES   REMARKS
BRADLEY INTL   MOCLDY    54  53  97 S7        30.04F                  
HARTFORD       CLEAR     58  55  90 CALM      30.05S                  
BRIDGEPORT     CLEAR     62  56  80 CALM      30.05F                  
DANBURY        MOCLDY    51  50  96 CALM      30.07F                  
GROTON         PTCLDY    59  55  87 NE3       30.05S                  
NEW HAVEN      PTCLDY    65  59  81 VRB3      30.05F                  
CHESTER        FAIR      59  59 100 CALM      30.06F                  
MERIDEN        CLEAR     54  51  90 CALM      30.05F FOG              
WILLIMANTIC    CLEAR     50  47  89 CALM      30.06F                  
OXFORD         CLEAR     56  55  97 CALM      30.07S                  
$$

MEZ002-015-021-024-NHZ003-005-008-011-012-014-VTZ005-008-171100-
NORTHERN NEW ENGLAND
  
CITY           SKY/WX    TMP DP  RH WIND       PRES   REMARKS
PORTLAND ME    CLEAR     58  55  90 SW8       29.99S                  
BANGOR ME      MOCLDY    57  53  86 S8        29.95S                  
CONCORD NH     CLEAR     52  50  93 S5        30.01S                  
MANCHESTER NH  CLEAR     58  53  84 S6        30.00S                  
NASHUA NH      CLEAR     54  54 100 CALM      30.03R                  
PORTSMOUTH NH  PTCLDY    58  54  86 SW8       30.00R                  
JAFFREY NH     CLEAR     55  53  93 SW6       30.03S                  
KEENE NH       FOG       47  46  97 S3        30.04S VSB 3/4          
BURLINGTON VT  CLOUDY    61  50  67 SW6       29.98R                  
MT. WASHINGTON FOG       39  39 100 W40         N/A  VSB 0   WCI  26  
$$

NYZ052-076-171100-
EASTERN NEW YORK
  
CITY           SKY/WX    TMP DP  RH WIND       PRES   REMARKS
ALBANY         MOCLDY    52  52 100 S6        30.02F                  
NEW YORK CITY  MOCLDY    67  59  75 S7        30.04F                  
$$
 
ANZALL-171100-
MARINE OBSERVATIONS
  
STATION/POSITION TIME  TEMP    WIND        PRES    VSBY  WAVE
                       AIR SEA DIR/SP/G                  HT/PER
                 (UTC) (F)     (DEG/KT/KT) (MB)    (MI)  (FT/S)
BOSTON BUOY      0950   63 64  200/ 12/ 14 1016.3S         2/13
BUZZARDS BAY     0900          250/ 18/ 19 1019.0R
NANTUCKET SOUND  0940      69  250/ 14/ 16   N/A
MASS BAY-STELLWA 0904   63     240/ 12/ 14 1015.0F  1 7/8  2/ 3
ISLE OF SHOALS   0900   61     220/ 22/ 23 1015.4F
S OF BLOCK IS    0926      70                N/A           5/12
$$

......................KEY.........................
  SKY/WX - SKY CONDITION/PRESENT WEATHER
  TMP    - TEMPERATURE IN FAHRENHEIT
  DWPT   - DEWPOINT IN FAHRENHEIT
  RH     - RELATIVE HUMIDITY IN PERCENT
  WIND   - DIRECTION AND SPEED IN MPH
  PRES   - MEAN SEA LEVEL PRESSURE IN INCHES OF HG
  WCI    - WIND CHILL INDEX
  VSB    - VISIBILITY IN MILES
  HX     - HEAT INDEX
  TC     - TEMPERATURE IN CELSIUS
  VRB    - VARIABLE WIND DIRECTION
  N/A    - NOT AVAILABLE
  
      

Other recent Regional Weather Roundups

Sat Sep 19, 8:04am

Sat Sep 19, 7:04am

Sat Sep 19, 6:04am

Sat Sep 19, 5:04am

Sat Sep 19, 4:04am

Sat Sep 19, 3:04am

Sat Sep 19, 2:04am

Sat Sep 19, 1:04am

Sat Sep 19, 12:04am

Fri Sep 18, 11:05pm

Fri Sep 18, 10:04pm

Fri Sep 18, 9:04pm

Fri Sep 18, 8:04pm

Fri Sep 18, 7:04pm

Fri Sep 18, 6:04pm

Fri Sep 18, 5:05pm

Fri Sep 18, 4:04pm

Fri Sep 18, 3:05pm

Fri Sep 18, 2:04pm

Fri Sep 18, 1:04pm

Fri Sep 18, 12:04pm

Fri Sep 18, 11:05am

Fri Sep 18, 10:05am

Fri Sep 18, 9:04am

Fri Sep 18, 8:04am

Fri Sep 18, 7:04am

Fri Sep 18, 6:04am

Fri Sep 18, 5:04am

Fri Sep 18, 4:04am

Fri Sep 18, 3:04am

Fri Sep 18, 2:04am

Fri Sep 18, 1:04am

Fri Sep 18, 12:04am

Thu Sep 17, 11:05pm

Thu Sep 17, 10:04pm

Thu Sep 17, 9:04pm

Thu Sep 17, 8:05pm

Thu Sep 17, 7:04pm

Thu Sep 17, 6:04pm

Thu Sep 17, 5:04pm

Thu Sep 17, 4:04pm

Thu Sep 17, 3:05pm

Thu Sep 17, 2:04pm

Thu Sep 17, 1:04pm

Thu Sep 17, 12:04pm

Thu Sep 17, 11:04am

Thu Sep 17, 10:04am

Thu Sep 17, 9:04am

Thu Sep 17, 8:04am

Thu Sep 17, 7:04am

Thu Sep 17, 5:04am

Thu Sep 17, 4:04am

Thu Sep 17, 3:04am

Thu Sep 17, 2:05am

Thu Sep 17, 1:05am

Thu Sep 17, 12:04am

Wed Sep 16, 11:04pm

Wed Sep 16, 10:04pm

Wed Sep 16, 9:04pm

Wed Sep 16, 8:05pm

Wed Sep 16, 7:04pm

Wed Sep 16, 6:04pm

Wed Sep 16, 5:04pm

Wed Sep 16, 4:04pm

Wed Sep 16, 3:04pm

Wed Sep 16, 2:04pm

Wed Sep 16, 1:04pm

Wed Sep 16, 12:04pm

Wed Sep 16, 11:04am

Wed Sep 16, 10:04am

Wed Sep 16, 9:04am

Wed Sep 16, 8:04am

Wed Sep 16, 7:04am

Wed Sep 16, 6:04am

Wed Sep 16, 5:04am

Wed Sep 16, 4:04am

Wed Sep 16, 3:04am

Wed Sep 16, 2:04am

Wed Sep 16, 1:04am

Wed Sep 16, 12:05am

Tue Sep 15, 11:04pm

Tue Sep 15, 10:04pm

Tue Sep 15, 9:04pm

Tue Sep 15, 8:04pm

Tue Sep 15, 7:04pm

Tue Sep 15, 6:04pm

Tue Sep 15, 5:04pm

Tue Sep 15, 4:05pm

Tue Sep 15, 3:04pm

Tue Sep 15, 2:04pm

Tue Sep 15, 1:04pm

Tue Sep 15, 12:04pm

Tue Sep 15, 11:04am

Tue Sep 15, 10:04am

Tue Sep 15, 9:04am

Tue Sep 15, 8:04am

Tue Sep 15, 7:04am

Tue Sep 15, 6:04am

Tue Sep 15, 5:04am

Tue Sep 15, 4:04am

Tue Sep 15, 3:04am

Tue Sep 15, 2:04am

Tue Sep 15, 1:04am

Tue Sep 15, 12:05am

Mon Sep 14, 11:04pm

Mon Sep 14, 10:04pm

Mon Sep 14, 9:04pm

Mon Sep 14, 8:04pm

Mon Sep 14, 7:04pm

Mon Sep 14, 6:04pm

Mon Sep 14, 5:04pm

Mon Sep 14, 4:05pm

Mon Sep 14, 3:04pm

Mon Sep 14, 2:05pm

Mon Sep 14, 1:04pm

Mon Sep 14, 12:04pm

Mon Sep 14, 11:04am

Mon Sep 14, 10:05am

Mon Sep 14, 9:04am

Mon Sep 14, 8:04am

Mon Sep 14, 7:04am

Mon Sep 14, 6:04am

Mon Sep 14, 5:04am

Mon Sep 14, 4:04am

Mon Sep 14, 3:04am

Mon Sep 14, 2:04am

Mon Sep 14, 1:04am

Mon Sep 14, 12:04am

Sun Sep 13, 11:05pm

Sun Sep 13, 10:04pm

Sun Sep 13, 9:04pm

Sun Sep 13, 8:04pm

Sun Sep 13, 7:05pm

Sun Sep 13, 6:05pm

Sun Sep 13, 5:05pm

Sun Sep 13, 4:04pm

Sun Sep 13, 3:04pm

Sun Sep 13, 2:04pm

Sun Sep 13, 1:04pm

Sun Sep 13, 12:04pm

Sun Sep 13, 11:05am

Sun Sep 13, 10:04am

Sun Sep 13, 9:04am

Sun Sep 13, 8:04am

Sun Sep 13, 7:04am

Sun Sep 13, 6:04am

Sun Sep 13, 5:04am

Sun Sep 13, 4:04am

Sun Sep 13, 3:04am

Sun Sep 13, 2:04am

Sun Sep 13, 1:04am

Sun Sep 13, 12:04am

Sat Sep 12, 11:04pm

Sat Sep 12, 10:04pm

Sat Sep 12, 9:04pm

Sat Sep 12, 8:04pm

Sat Sep 12, 7:05pm

Sat Sep 12, 6:04pm

Sat Sep 12, 5:04pm

Sat Sep 12, 4:05pm

Sat Sep 12, 3:04pm

Sat Sep 12, 2:04pm

Sat Sep 12, 1:05pm

Sat Sep 12, 12:04pm

Sat Sep 12, 11:04am

Sat Sep 12, 10:04am

Sat Sep 12, 9:04am

Meta data:

ID: f782fa46-ea98-47f4-a5d0-82320a1eb123
Link: https://api.weather.gov/products/f782fa46-ea98-47f4-a5d0-82320a1eb123